Weather History for Bogota, Colombia

Change the Weather History Date:

Tuesday, May 6, 2014

  Actual Average Record
Temperature  
Mean Temperature 56 °F -  
Max Temperature 65 °F 64 °F 80 °F (2002)
Min Temperature 46 °F 47 °F 44 °F (2001)
Degree Days  
Heating Degree Days 10    
Growing Degree Days 6 (Base 50)    
Moisture  
Dew Point 52 °F    
Average Humidity 76    
Maximum Humidity 95    
Minimum Humidity 52    
Precipitation  
Precipitation 0.08 in 0.11 in - ()
Sea Level Pressure  
Sea Level Pressure 30.32 in    
Wind  
Wind Speed 5 mph ()    
Max Wind Speed 14 mph    
Max Gust Speed -    
Visibility 5.5 miles    
Events Fog , Rain , Thunderstorm    
Averages and records for this station are not official NWS values.
T = Trace of Precipitation, MM = Missing Value Source: Averaged Metar Reports

Daily Weather History Graph

Daily Weather History Graph

Search for Another Location

Airport:

Trip Planner

Search our weather history database for the weather conditions in past years. The results will help you decide how hot, cold, wet, or windy it might be!

Date:

Astronomy

May. 06, 2014 Rise Set
Actual Time 5:44 AM COT 6:02 PM COT
Civil Twilight 5:22 AM COT 6:24 PM COT
Nautical Twilight 4:57 AM COT 6:49 PM COT
Astronomical Twilight 4:31 AM COT 7:14 PM COT
Moon 11:44 AM COT (5/6) No Moon Set
Length of Visible Light 13h 01m
Length of Day
12h 18m
Waxing Crescent, 46% of the Moon is Illuminated
May 6
Waxing Crescent
May 6
First Quarter
May 14
Full
May 21
Last Quarter
May 28
New

Hourly Weather History & Observations

Time (COT) Temp. Dew Point Humidity Pressure Visibility Wind Dir Wind Speed Gust Speed Precip Events Conditions
12:00 AM 53.6 °F 50.0 °F 88% 30.34 in 5.6 mi NE 4.6 mph - N/A   Scattered Clouds
1:00 AM 55 °F 50 °F 78%  in 5 mi NE 4.5 mph - - Fog Light Fog
1:00 AM 55.4 °F 50.0 °F 82% 30.30 in 5.0 mi NE 4.6 mph - N/A Fog Fog
2:00 AM 53.6 °F 50.0 °F 88% 30.30 in 5.6 mi NW 3.5 mph - N/A   Partly Cloudy
3:00 AM 51.8 °F 50.0 °F 94% 30.30 in 5.6 mi Variable 2.3 mph - N/A   Partly Cloudy
7:00 AM 53 °F 52 °F 95%  in 5 mi ENE 4.5 mph - - Fog Shallow Fog
7:00 AM 53.6 °F 51.8 °F 94% 30.35 in 5.0 mi ENE 3.5 mph - N/A Fog Fog
8:00 AM 57.2 °F 53.6 °F 88% 30.37 in 5.0 mi NNE 4.6 mph - N/A   Scattered Clouds
9:00 AM 62.6 °F 51.8 °F 68% 30.38 in 6.2 mi ENE 6.9 mph - N/A   Scattered Clouds
10:00 AM 64 °F 51 °F 52%  in 7 mi NNE 1.2 mph - -   Haze
10:00 AM 64.4 °F 50.0 °F 59% 30.37 in 6.2 mi Variable 2.3 mph - N/A   Scattered Clouds
11:00 AM 64.4 °F 50.0 °F 59% 30.35 in 6.2 mi Variable 2.3 mph - N/A   Scattered Clouds
12:00 PM 64.4 °F 50.0 °F 59% 30.33 in 5.0 mi Variable 2.3 mph - N/A   Mostly Cloudy
1:00 PM 66.2 °F 55.4 °F 68% 30.29 in 5.0 mi WNW 9.2 mph - N/A   Scattered Clouds
2:00 PM 64.4 °F 55.4 °F 73% 30.27 in 5.0 mi West 13.8 mph - N/A   Scattered Clouds
2:30 PM 66.2 °F 55.4 °F 68% 30.25 in 6.2 mi WNW 9.2 mph - N/A   Scattered Clouds
3:00 PM 66.2 °F 53.6 °F 64% 30.25 in 6.2 mi WSW 6.9 mph - N/A   Scattered Clouds
4:00 PM 64 °F 53 °F 60%  in 5 mi SW 8.9 mph - -   Partly Cloudy
4:00 PM 64.4 °F 53.6 °F 68% 30.24 in 5.0 mi SW 9.2 mph - N/A   Scattered Clouds
5:00 PM 64.4 °F 51.8 °F 64% 30.26 in 5.0 mi West 8.1 mph - N/A   Scattered Clouds
6:00 PM 60.8 °F 51.8 °F 72% 30.28 in 5.0 mi WNW 6.9 mph - N/A   Scattered Clouds
7:00 PM 60 °F 52 °F 69%  in 5 mi West 6.7 mph - -   Haze
7:00 PM 60.8 °F 51.8 °F 72% 30.31 in 6.2 mi West 5.8 mph - N/A   Scattered Clouds
8:00 PM 59.0 °F 51.8 °F 77% 30.33 in 6.2 mi West 4.6 mph - N/A   Scattered Clouds
8:25 PM 59.0 °F 53.6 °F 82% 30.34 in 5.0 mi WNW 5.8 mph - N/A Thunderstorm Thunderstorm
9:00 PM 57.2 °F 53.6 °F 88% 30.35 in 5.0 mi West 4.6 mph - N/A Rain , Thunderstorm Light Thunderstorms and Rain
10:00 PM 55 °F 53 °F 92%  in 5 mi SW 4.5 mph - - Rain Light Drizzle
10:00 PM 55.4 °F 53.6 °F 94% 30.36 in 5.0 mi SW 4.6 mph - N/A   Drizzle
11:00 PM 55.4 °F 51.8 °F 88% 30.35 in 6.2 mi NE 3.5 mph - N/A   Scattered Clouds